Agua de Enmedio, Mexico

12:05 AM MST on December 10, 2016 (GMT -0700)
Agua de Enmedio

Weather History for 76405 - November, 2013

Change the Weather History Date:

Thursday, November 28, 2013

  Actual Average Record
Temperature  
Mean Temperature 74 °F -  
Max Temperature 83 °F 76 °F - ()
Min Temperature 64 °F 53 °F - ()
Cooling Degree Days 8    
Growing Degree Days 24 (Base 50)    
Moisture  
Dew Point 61 °F    
Average Humidity 67    
Maximum Humidity 88    
Minimum Humidity 46    
Precipitation  
Precipitation 0.00 in - - ()
Sea Level Pressure  
Sea Level Pressure 30.02 in    
Wind  
Wind Speed 2 mph ()    
Max Wind Speed 12 mph    
Max Gust Speed -    
Visibility 10.0 miles    
Events      
T = Trace of Precipitation, MM = Missing Value Source: Averaged Metar Reports

Daily Weather History Graph

Daily Weather History Graph

Search for Another Location

Airport or City:

Trip Planner

Search our weather history database for the weather conditions in past years. The results will help you decide how hot, cold, wet, or windy it might be!

Date:

Astronomy

Nov. 28, 2013 Rise Set
Actual Time 6:45 AM MST 5:32 PM MST
Civil Twilight 6:21 AM MST 5:57 PM MST
Nautical Twilight 5:53 AM MST 6:25 PM MST
Astronomical Twilight 5:25 AM MST 6:52 PM MST
Moon 2:19 AM MST (11/28) 2:20 PM MST (11/28)
Length of Visible Light 11h 36m
Length of Day
10h 47m
Waning Crescent, 22% of the Moon is Illuminated
Nov 28
Waning Crescent
Dec 2
New
Dec 9
First Quarter
Dec 17
Full
Dec 25
Last Quarter

Hourly Weather History & Observations

Time (MST) Temp. Dew Point Humidity Pressure Visibility Wind Dir Wind Speed Gust Speed Precip Events Conditions
1:50 AM 69 °F 64 °F 78% 29.92 in 2 mi Calm Calm - -   Partly Cloudy
4:40 AM 67 °F 62 °F 80% 29.97 in 2 mi SE 2.2 mph - -   Mostly Cloudy
5:41 AM 62.6 °F 57.2 °F 82% 29.96 in 10.0 mi South 4.6 mph - N/A   Mostly Cloudy
7:40 AM 68 °F 63 °F 80% 30.04 in 16 mi Calm Calm - -   Scattered Clouds
7:40 AM 62.6 °F 59.0 °F 88% 30.15 in 10.0 mi Calm Calm - N/A   Mostly Cloudy
8:45 AM 66.2 °F 59.0 °F 78% 30.03 in 10.0 mi Calm Calm - N/A   Mostly Cloudy
9:40 AM 71.6 °F 60.8 °F 69% 30.03 in 10.0 mi Calm Calm - N/A   Mostly Cloudy
10:43 AM 75.2 °F 60.8 °F 61% 30.16 in 10.0 mi Calm Calm - N/A   Mostly Cloudy
10:50 AM 79 °F 64 °F 51% 30.01 in 19 mi West 4.5 mph - -   Scattered Clouds
11:42 AM 77.0 °F 59.0 °F 54% 30.00 in 10.0 mi NW 4.6 mph - N/A   Mostly Cloudy
12:40 PM 78.8 °F 59.0 °F 51% 29.97 in 10.0 mi North 10.4 mph - N/A   Mostly Cloudy
1:41 PM 78.8 °F 60.8 °F 54% 30.09 in 10.0 mi North 6.9 mph - N/A   Mostly Cloudy
1:50 PM 82 °F 65 °F 46% 29.93 in 19 mi NW 6.7 mph - -   Clear
3:43 PM 78.8 °F 62.6 °F 57% 29.94 in 10.0 mi North 11.5 mph - N/A   Mostly Cloudy
4:43 PM 78.8 °F 60.8 °F 54% 30.06 in 10.0 mi North 9.2 mph - N/A   Mostly Cloudy
4:45 PM 79 °F 64 °F 50% 29.92 in 19 mi NNE 4.5 mph - -  
5:47 PM 75.2 °F 60.8 °F 61% 29.97 in 10.0 mi Calm Calm - N/A   Scattered Clouds
6:51 PM 71.6 °F 62.6 °F 73% 30.00 in 10.0 mi Calm Calm - N/A   Scattered Clouds
7:45 PM 74 °F 65 °F 67% 29.98 in 2 mi NNW 2.2 mph - -  
7:51 PM 69.8 °F 60.8 °F 73% 30.14 in 10.0 mi Calm Calm - N/A   Scattered Clouds
8:48 PM 68.0 °F 60.8 °F 78% 30.04 in 10.0 mi SSE 6.9 mph - N/A   Scattered Clouds
10:13 PM 64.4 °F 55.4 °F 73% 30.05 in 10.0 mi Calm Calm - N/A   Scattered Clouds
10:42 PM 64.4 °F 55.4 °F 73% 30.15 in 10.0 mi Calm Calm - N/A   Scattered Clouds
10:50 PM 70 °F 62 °F 70% 30.04 in 2 mi South 2.2 mph - -